User: anonymous   Login
Location: La Brionne
(46.1728°N, 1.7849°E)
Time: 01:27:01
(UTC+00:00)
Language:

FALCON 9 DEB - Orbit

View from above orbital plane
View from above orbital plane
View from above satellite
View from above satellite

Ground track
Ground track

The orbit data is extracted from the following two-line orbital elements,

1 46087U 20055BN  21259.18856606  .00021038  00000-0  17930-3 0  9993
2 46087  53.0045 107.4363 0010711 163.8590 196.2769 15.69476264 67935
Epoch (UTC): 16 September 2021 04:31:32
Eccentricity: 0.0010711
inclination: 53.0045°
perigee height: 353 km
apogee height: 367 km
right ascension of ascending node: 107.4363°
argument of perigee: 163.8590°
revolutions per day: 15.69476264
mean anomaly at epoch: 196.2769°
orbit number at epoch: 6793

The dashed part of the orbit path shows where the satellite is in the earth's shadow,  

DLR